Houlton, ME

7:54 AM EST on February 14, 2016 (GMT -0500)
Houlton International

Weather History for KHUL - May, 2014

Change the Weather History Date:

Friday, May 30, 2014

  Actual Average Record
Temperature  
Mean Temperature 61 °F 55 °F  
Max Temperature 74 °F 68 °F 89 °F (1972)
Min Temperature 47 °F 43 °F 28 °F (2008)
Degree Days  
Heating Degree Days 4 10  
Month to date heating degree days 398 425  
Since 1 July heating degree days 9290 8998  
Cooling Degree Days 0 0  
Month to date cooling degree days 1 0  
Year to date cooling degree days 1 0  
Growing Degree Days 10 (Base 50)    
Moisture  
Dew Point 40 °F    
Average Humidity 53    
Maximum Humidity 83    
Minimum Humidity 23    
Precipitation  
Precipitation 0.00 in 0.11 in 1.43 in (1990)
Month to date precipitation 3.03 3.19  
Year to date precipitation 14.70 14.52  
Sea Level Pressure  
Sea Level Pressure 30.02 in    
Wind  
Wind Speed 4 mph (SSW)    
Max Wind Speed 14 mph    
Max Gust Speed 19 mph    
Visibility 10 miles    
Events      
T = Trace of Precipitation, MM = Missing Value Source: NWS Daily Summary

Daily Weather History Graph

Daily Weather History Graph

Search for Another Location

Airport or City:

Trip Planner

Search our weather history database for the weather conditions in past years. The results will help you decide how hot, cold, wet, or windy it might be!

Date:

Astronomy

May. 30, 2014 Rise Set
Actual Time 4:44 AM EDT 8:13 PM EDT
Civil Twilight 4:07 AM EDT 8:50 PM EDT
Nautical Twilight 3:18 AM EDT 9:39 PM EDT
Astronomical Twilight 2:14 AM EDT 10:44 PM EDT
Moon 6:29 AM EDT (5/30) 9:43 PM EDT (5/30)
Length of Visible Light 16h 43m
Length of Day
15h 28m
Waxing Crescent, 4% of the Moon is Illuminated
May 30
Waxing Crescent
Jun 5
First Quarter
Jun 13
Full
Jun 19
Last Quarter
Jun 27
New

Hourly Weather History & Observations

Time (EDT) Temp. Dew Point Humidity Pressure Visibility Wind Dir Wind Speed Gust Speed Precip Events Conditions
12:53 AM 52.0 °F 37.0 °F 57% 30.05 in 10.0 mi SSW 6.9 mph - N/A   Clear
1:53 AM 51.1 °F 36.0 °F 56% 30.05 in 10.0 mi SSW 5.8 mph - N/A   Clear
2:53 AM 48.0 °F 36.0 °F 63% 30.04 in 10.0 mi SSW 5.8 mph - N/A   Clear
3:53 AM 48.0 °F 36.0 °F 63% 30.03 in 10.0 mi South 6.9 mph - N/A   Clear
4:53 AM 48.0 °F 35.1 °F 61% 30.03 in 10.0 mi South 5.8 mph - N/A   Clear
5:53 AM 48.0 °F 36.0 °F 63% 30.03 in 10.0 mi SSW 5.8 mph - N/A   Clear
6:53 AM 48.9 °F 36.0 °F 61% 30.03 in 10.0 mi South 6.9 mph - N/A   Clear
7:53 AM 52.0 °F 37.9 °F 59% 30.03 in 10.0 mi SSW 5.8 mph - N/A   Clear
8:53 AM 54.0 °F 39.9 °F 59% 30.04 in 10.0 mi South 5.8 mph - N/A   Clear
9:53 AM 61.0 °F 41.0 °F 48% 30.02 in 10.0 mi SW 4.6 mph - N/A   Clear
10:53 AM 66.0 °F 43.0 °F 43% 30.01 in 10.0 mi NNW 3.5 mph - N/A   Clear
11:53 AM 66.0 °F 39.9 °F 38% 30.00 in 10.0 mi South 6.9 mph - N/A   Clear
12:53 PM 70.0 °F 39.9 °F 33% 29.98 in 10.0 mi Calm Calm - N/A   Clear
1:53 PM 71.6 °F 39.2 °F 31% 29.96 in 10.0 mi Variable 4.6 mph - N/A   Clear
2:53 PM 71.1 °F 36.0 °F 28% 29.95 in 10.0 mi Calm Calm - N/A   Clear
3:53 PM 73.0 °F 34.0 °F 24% 29.95 in 10.0 mi East 9.2 mph - N/A   Partly Cloudy
4:53 PM 68.0 °F 42.8 °F 40% 29.97 in 10.0 mi WNW 11.5 mph 17.3 mph N/A   Overcast
5:53 PM 62.1 °F 46.9 °F 58% 30.01 in 10.0 mi NNE 8.1 mph - N/A   Overcast
6:53 PM 61.0 °F 46.0 °F 58% 30.04 in 10.0 mi West 3.5 mph - N/A   Mostly Cloudy
7:53 PM 59.0 °F 48.0 °F 67% 30.05 in 10.0 mi Calm Calm - N/A   Scattered Clouds
8:53 PM 54.0 °F 46.9 °F 77% 30.05 in 10.0 mi Calm Calm - N/A   Clear
9:53 PM 52.0 °F 46.9 °F 83% 30.06 in 10.0 mi Calm Calm - N/A   Clear
10:53 PM 50.0 °F 45.0 °F 83% 30.06 in 10.0 mi South 3.5 mph - N/A   Clear
11:53 PM 51.1 °F 39.0 °F 63% 30.07 in 10.0 mi Calm Calm - N/A   Clear